Location: Homewood
(41.1836°S, 175.9581°E)
Time: 15:48:26
(UTC+00:00)

S3M - Pass Details

Date: 18 April 2024
Orbit: 947 x 1004 km, 83.0° (Epoch: 19 April)

Event Time Altitude Azimuth Distance (km) Brightness Sun altitude
Rises 17:41:19 0° 332° (NNW) 3,707 6.8 -13.7°
Reaches altitude 10° 17:43:59 10° 324° (NW) 2,772 6.1 -13.2°
Maximum altitude 17:49:56 40° 256° (WSW) 1,461 4.5 -12.1°
Drops below altitude 10° 17:55:58 10° 187° (S) 2,813 6.3 -11.0°
Sets 17:58:44 0° 179° (S) 3,769 7.0 -10.4°
